User: anonymous   Login
Location: Bangkok
(13.7500°N, 100.5170°E)
Time: 10:21:45
(UTC+07:00)
Language:

Cosmos 1898 Rocket - Orbit

View from above orbital plane
View from above orbital plane
View from above satellite
View from above satellite

Ground track
Ground track

The orbit data is extracted from the following two-line orbital elements,

1 18586U 87098B   15026.32699564  .00000111  00000-0  46543-4 0  2282
2 18586 074.0074 102.3964 0021318 001.6976 041.1204 14.36553292422012
Epoch (UTC): 26 January 2015 07:50:52
Eccentricity: 0.0021318
inclination: 74.0074°
perigee height: 754 km
apogee height: 785 km
right ascension of ascending node: 102.3964°
argument of perigee: 1.6976°
revolutions per day: 14.36553292
mean anomaly at epoch: 41.1204°
orbit number at epoch: 42201

The dashed part of the orbit path shows where the satellite is in the earth's shadow,  

DLR